User: anonymous   Login
Location: Muenchen
(48.1800°N, 11.5800°E)
Time: 06:45:31
(UTC+02:00)
Language:

Iridium 73 - Orbit

View from above orbital plane
View from above orbital plane
View from above satellite
View from above satellite

Ground track
Ground track

The orbit data is extracted from the following two-line orbital elements,

1 25344U 98032C   16209.50416121  .00000131  00000-0  29225-4 0  9997
2 25344  86.4449 340.1460 0002938  87.3230 272.8311 14.48955267960536
Epoch (UTC): 27 July 2016 12:05:59
Eccentricity: 0.0002938
inclination: 86.4449°
perigee height: 727 km
apogee height: 731 km
right ascension of ascending node: 340.1460°
argument of perigee: 87.3230°
revolutions per day: 14.48955267
mean anomaly at epoch: 272.8311°
orbit number at epoch: 96053

The dashed part of the orbit path shows where the satellite is in the earth's shadow,  

DLR